Tracking 27402 objects as of 2-Jun-2023
HD Live streaming from Space Station
objects crossing your sky now

ATLAS AGENA R/B(2)

Track ATLAS AGENA R/B(2) now!


NORAD ID: 15422
Int'l Code: 1977-038C
Perigee: 28,952.4 km
Apogee: 41,496.2 km
Inclination: 8.0 °
Period: 1,407.1 minutes
Semi major axis: 41595 km
RCS: Unknown
Launch date: May 23, 1977
Source: United States (US)
Launch site: AIR FORCE EASTERN TEST RANGE (AFETR)

Note: This is a ROCKET BODY
Your satellite tracking list
Your tracking list is empty




NASA's NSSDC Master Catalog

Two Line Element Set (TLE):
1 15422U 77038C   23151.55917247 -.00000228  00000-0  00000-0 0  9994
2 15422   7.9526 331.5594 1507833 157.8711 209.3351  1.02337842 14853
Source of the keplerian elements: McCants